DLH956 EDDF-EGBB

Flight info

Callsign DLH956
Flight time 1h 13m
Altitude 38000
Route OBOKA3W/25C OBOKA Z29 TORNU DCT GALSO Q63 ERING L179 LAM L610 HEMEL
Aircraft A319/M-SDE2E3FGILORWXYZ/HB1

Departure

Time 2026-05-06 17:28
Airport Frankfurt Main Airport (EDDF)

Arrival

Time 2026-05-06 18:41
Airport Birmingham Airport (EGBB)
Time Latitude Longitude Altitude Speed Heading
2026-05-06 16:45 50.04653 8.57062 362 ft 0 kts 91°
2026-05-06 17:10 50.04653 8.57061 356 ft 0 kts 91°
2026-05-06 17:15 50.04653 8.57050 356 ft 4 kts 91°
2026-05-06 17:15 50.04653 8.57008 356 ft 4 kts 91°
2026-05-06 17:15 50.04654 8.56974 358 ft 4 kts 111°
2026-05-06 17:16 50.04668 8.56950 360 ft 4 kts 180°
2026-05-06 17:16 50.04681 8.56954 358 ft 0 kts 205°
2026-05-06 17:16 50.04657 8.56937 361 ft 4 kts 204°
2026-05-06 17:16 50.04646 8.56929 358 ft 0 kts 204°
2026-05-06 17:19 50.04644 8.56927 358 ft 1 kts 204°
2026-05-06 17:19 50.04620 8.56916 356 ft 6 kts 193°
2026-05-06 17:20 50.04589 8.56905 357 ft 2 kts 194°
2026-05-06 17:20 50.04586 8.56903 357 ft 0 kts 194°
2026-05-06 17:20 50.04581 8.56902 357 ft 2 kts 194°
2026-05-06 17:20 50.04576 8.56900 358 ft 1 kts 194°
2026-05-06 17:21 50.04572 8.56898 358 ft 1 kts 194°
2026-05-06 17:21 50.04557 8.56892 360 ft 5 kts 194°
2026-05-06 17:21 50.04488 8.56866 359 ft 12 kts 193°
2026-05-06 17:21 50.04398 8.56843 360 ft 15 kts 188°
2026-05-06 17:22 50.04319 8.56819 360 ft 7 kts 190°
2026-05-06 17:22 50.04284 8.56848 360 ft 5 kts 123°
2026-05-06 17:22 50.04279 8.56904 360 ft 7 kts 86°
2026-05-06 17:22 50.04296 8.56987 359 ft 9 kts 69°
2026-05-06 17:23 50.04319 8.57084 366 ft 10 kts 70°
2026-05-06 17:23 50.04346 8.57198 364 ft 13 kts 70°
2026-05-06 17:23 50.04384 8.57353 361 ft 18 kts 69°
2026-05-06 17:23 50.04419 8.57495 363 ft 7 kts 69°
2026-05-06 17:24 50.04431 8.57555 365 ft 3 kts 81°
2026-05-06 17:24 50.04431 8.57567 367 ft 2 kts 89°
2026-05-06 17:24 50.04415 8.57627 365 ft 8 kts 128°
2026-05-06 17:24 50.04367 8.57669 364 ft 10 kts 159°
2026-05-06 17:25 50.04292 8.57711 364 ft 8 kts 172°
2026-05-06 17:25 50.04268 8.57673 368 ft 0 kts 250°
2026-05-06 17:27 50.04265 8.57661 362 ft 9 kts 250°
2026-05-06 17:28 50.04146 8.57158 366 ft 87 kts 250°
2026-05-06 17:28 50.03859 8.55957 358 ft 147 kts 249°
2026-05-06 17:28 50.03473 8.54368 839 ft 156 kts 251°
2026-05-06 17:28 50.03093 8.52786 1530 ft 157 kts 251°
2026-05-06 17:29 50.02719 8.51222 2213 ft 156 kts 251°
2026-05-06 17:29 50.02165 8.49761 2862 ft 159 kts 231°
2026-05-06 17:29 50.01321 8.48653 3516 ft 161 kts 211°
2026-05-06 17:29 50.00223 8.48002 3927 ft 181 kts 193°
2026-05-06 17:30 49.98900 8.47698 4281 ft 202 kts 190°
2026-05-06 17:30 49.97483 8.47386 4910 ft 207 kts 189°
2026-05-06 17:30 49.96052 8.47040 5631 ft 209 kts 195°
2026-05-06 17:30 49.94592 8.46389 6073 ft 230 kts 198°
2026-05-06 17:31 49.93018 8.45627 6758 ft 242 kts 203°
2026-05-06 17:31 49.91560 8.44293 7628 ft 246 kts 220°
2026-05-06 17:31 49.90419 8.42291 8531 ft 251 kts 237°
2026-05-06 17:31 49.89522 8.39947 9462 ft 254 kts 239°
2026-05-06 17:32 49.88827 8.37402 10300 ft 260 kts 255°
2026-05-06 17:32 49.88621 8.34540 10810 ft 281 kts 271°
2026-05-06 17:32 49.88778 8.31387 11125 ft 305 kts 273°
2026-05-06 17:32 49.88923 8.29168 11387 ft 319 kts 278°
2026-05-06 17:33 49.89954 8.24817 12326 ft 333 kts 300°
2026-05-06 17:33 49.91294 8.21845 12734 ft 338 kts 304°
2026-05-06 17:33 49.92696 8.18894 13532 ft 341 kts 305°
2026-05-06 17:33 49.94179 8.15999 14258 ft 346 kts 311°
2026-05-06 17:34 49.95981 8.13469 14975 ft 351 kts 318°
2026-05-06 17:34 49.97252 8.11901 15440 ft 355 kts 323°
2026-05-06 17:34 49.99316 8.09760 16150 ft 359 kts 325°
2026-05-06 17:34 50.01423 8.07650 16855 ft 362 kts 326°
2026-05-06 17:35 50.03565 8.05542 17560 ft 366 kts 326°
2026-05-06 17:35 50.05729 8.03419 18231 ft 370 kts 326°
2026-05-06 17:35 50.07916 8.01267 18852 ft 373 kts 326°
2026-05-06 17:36 50.12338 7.96885 20101 ft 380 kts 326°
2026-05-06 17:36 50.14569 7.94659 20735 ft 383 kts 326°
2026-05-06 17:36 50.16820 7.92406 21353 ft 386 kts 325°
2026-05-06 17:36 50.19085 7.90130 21982 ft 389 kts 325°
2026-05-06 17:37 50.21364 7.87836 22594 ft 392 kts 325°
2026-05-06 17:37 50.23664 7.85521 23207 ft 395 kts 325°
2026-05-06 17:37 50.25986 7.83185 23748 ft 399 kts 325°
2026-05-06 17:37 50.28330 7.80828 24213 ft 403 kts 325°
2026-05-06 17:38 50.30699 7.78444 24683 ft 406 kts 325°
2026-05-06 17:38 50.33088 7.76039 25151 ft 410 kts 325°
2026-05-06 17:38 50.35491 7.73616 25599 ft 413 kts 324°
2026-05-06 17:38 50.37884 7.71198 26054 ft 416 kts 324°
2026-05-06 17:39 50.40325 7.68725 26516 ft 419 kts 324°
2026-05-06 17:39 50.42775 7.66238 26990 ft 421 kts 324°
2026-05-06 17:39 50.45246 7.63726 27436 ft 424 kts 324°
2026-05-06 17:39 50.47726 7.61201 27890 ft 427 kts 324°
2026-05-06 17:40 50.50226 7.58653 28346 ft 430 kts 324°
2026-05-06 17:40 50.52747 7.56082 28762 ft 433 kts 324°
2026-05-06 17:40 50.55286 7.53492 29188 ft 436 kts 324°
2026-05-06 17:40 50.57841 7.50887 29605 ft 439 kts 324°
2026-05-06 17:41 50.60419 7.48260 30003 ft 442 kts 324°
2026-05-06 17:41 50.63005 7.45619 30375 ft 445 kts 324°
2026-05-06 17:41 50.65604 7.42956 30807 ft 445 kts 324°
2026-05-06 17:41 50.68201 7.40289 31230 ft 446 kts 324°
2026-05-06 17:42 50.70789 7.37588 31598 ft 446 kts 321°
2026-05-06 17:42 50.73146 7.34447 32064 ft 442 kts 312°
2026-05-06 17:42 50.75156 7.30806 32539 ft 438 kts 303°
2026-05-06 17:42 50.76780 7.26776 33004 ft 433 kts 295°
2026-05-06 17:43 50.78156 7.22559 33494 ft 431 kts 294°
2026-05-06 17:43 50.79528 7.18345 33960 ft 430 kts 294°
2026-05-06 17:43 50.80891 7.14162 34342 ft 429 kts 294°
2026-05-06 17:43 50.82260 7.09954 34692 ft 429 kts 294°
2026-05-06 17:44 50.83625 7.05752 35028 ft 429 kts 294°
2026-05-06 17:44 50.84968 7.01602 35351 ft 430 kts 294°
2026-05-06 17:44 50.86343 6.97329 35672 ft 430 kts 294°
2026-05-06 17:44 50.87698 6.93106 35971 ft 430 kts 294°
2026-05-06 17:45 50.89056 6.88877 36285 ft 431 kts 294°
2026-05-06 17:45 50.90413 6.84654 36565 ft 431 kts 294°
2026-05-06 17:45 50.91776 6.80421 36839 ft 431 kts 294°
2026-05-06 17:45 50.93138 6.76186 37107 ft 431 kts 294°
2026-05-06 17:46 50.94495 6.71946 37374 ft 431 kts 294°
2026-05-06 17:46 50.95846 6.67704 37632 ft 432 kts 294°
2026-05-06 17:46 50.97198 6.63443 37832 ft 432 kts 294°
2026-05-06 17:46 50.98548 6.59188 37898 ft 432 kts 294°
2026-05-06 17:47 51.01243 6.50679 37885 ft 431 kts 294°
2026-05-06 17:47 51.03925 6.42225 37890 ft 431 kts 294°
2026-05-06 17:48 51.06611 6.33703 37889 ft 431 kts 294°
2026-05-06 17:48 51.09288 6.25167 37891 ft 431 kts 294°
2026-05-06 17:49 51.11955 6.16622 37902 ft 431 kts 294°
2026-05-06 17:49 51.14354 6.07903 37904 ft 428 kts 283°
2026-05-06 17:50 51.15851 5.98739 37908 ft 428 kts 282°
2026-05-06 17:50 51.17331 5.89562 37906 ft 428 kts 282°
2026-05-06 17:51 51.18852 5.80398 37905 ft 428 kts 284°
2026-05-06 17:51 51.20777 5.71416 37899 ft 429 kts 288°
2026-05-06 17:52 51.22867 5.62499 37906 ft 429 kts 288°
2026-05-06 17:52 51.24886 5.53539 37909 ft 429 kts 287°
2026-05-06 17:53 51.26835 5.44531 37909 ft 429 kts 287°
2026-05-06 17:53 51.28764 5.35498 37910 ft 429 kts 287°
2026-05-06 17:54 51.30676 5.26538 37919 ft 429 kts 287°
2026-05-06 17:54 51.32607 5.17517 37922 ft 429 kts 287°
2026-05-06 17:55 51.34541 5.08487 37928 ft 429 kts 287°
2026-05-06 17:55 51.36458 4.99450 37926 ft 429 kts 287°
2026-05-06 17:56 51.38368 4.90410 37932 ft 429 kts 287°
2026-05-06 17:56 51.40275 4.81350 37933 ft 429 kts 287°
2026-05-06 17:57 51.42164 4.72284 37953 ft 429 kts 287°
2026-05-06 17:57 51.44060 4.63132 37920 ft 438 kts 287°
2026-05-06 17:58 51.45995 4.53797 37919 ft 450 kts 287°
2026-05-06 17:58 51.47987 4.44175 37924 ft 460 kts 287°
2026-05-06 17:59 51.49995 4.34389 37919 ft 462 kts 287°
2026-05-06 17:59 51.51996 4.24609 37920 ft 461 kts 287°
2026-05-06 18:00 51.53987 4.14818 37914 ft 461 kts 287°
2026-05-06 18:00 51.55967 4.05008 37916 ft 461 kts 286°
2026-05-06 18:01 51.57946 3.95206 37908 ft 461 kts 286°
2026-05-06 18:01 51.59912 3.85391 37920 ft 461 kts 286°
2026-05-06 18:02 51.61859 3.75589 37913 ft 459 kts 286°
2026-05-06 18:02 51.63783 3.65867 37927 ft 459 kts 286°
2026-05-06 18:03 51.65718 3.56051 37917 ft 459 kts 286°
2026-05-06 18:03 51.67642 3.46253 37927 ft 459 kts 286°
2026-05-06 18:04 51.69558 3.36449 37931 ft 457 kts 286°
2026-05-06 18:04 51.71429 3.26810 37943 ft 437 kts 286°
2026-05-06 18:05 51.72845 3.17505 37938 ft 422 kts 274°
2026-05-06 18:05 51.72507 3.08157 37950 ft 417 kts 261°
2026-05-06 18:06 51.71698 2.98863 37954 ft 419 kts 262°
2026-05-06 18:06 51.70889 2.89563 37959 ft 418 kts 262°
2026-05-06 18:07 51.70069 2.80265 37944 ft 419 kts 261°
2026-05-06 18:07 51.69248 2.71023 37961 ft 419 kts 261°
2026-05-06 18:08 51.68413 2.61719 37952 ft 420 kts 261°
2026-05-06 18:08 51.67575 2.52408 37962 ft 420 kts 261°
2026-05-06 18:09 51.66734 2.43105 37960 ft 420 kts 261°
2026-05-06 18:09 51.65880 2.33807 37956 ft 420 kts 261°
2026-05-06 18:10 51.65017 2.24511 37962 ft 420 kts 261°
2026-05-06 18:10 51.64147 2.15219 37962 ft 420 kts 261°
2026-05-06 18:11 51.63280 2.05986 37965 ft 420 kts 261°
2026-05-06 18:11 51.62414 1.96681 37967 ft 420 kts 261°
2026-05-06 18:12 51.61549 1.87385 37977 ft 421 kts 261°
2026-05-06 18:12 51.60678 1.78075 37981 ft 421 kts 261°
2026-05-06 18:13 51.59797 1.68754 37984 ft 421 kts 261°
2026-05-06 18:13 51.59167 1.59388 37986 ft 422 kts 271°
2026-05-06 18:14 51.59556 1.50038 37986 ft 422 kts 273°
2026-05-06 18:14 51.59961 1.40633 37991 ft 422 kts 273°
2026-05-06 18:15 51.60350 1.31226 37987 ft 422 kts 273°
2026-05-06 18:15 51.60733 1.21812 37733 ft 422 kts 273°
2026-05-06 18:16 51.60926 1.17107 37461 ft 421 kts 273°
2026-05-06 18:16 51.61117 1.12403 37189 ft 421 kts 273°
2026-05-06 18:16 51.61305 1.07716 36897 ft 417 kts 273°
2026-05-06 18:16 51.61489 1.03087 36418 ft 413 kts 273°
2026-05-06 18:17 51.61668 0.98496 35949 ft 409 kts 273°
2026-05-06 18:17 51.61846 0.93941 35466 ft 407 kts 273°
2026-05-06 18:17 51.62019 0.89417 34980 ft 404 kts 273°
2026-05-06 18:17 51.62191 0.84918 34483 ft 402 kts 273°
2026-05-06 18:18 51.62359 0.80446 33981 ft 400 kts 273°
2026-05-06 18:18 51.62522 0.75993 33437 ft 397 kts 273°
2026-05-06 18:18 51.62682 0.71586 32957 ft 392 kts 273°
2026-05-06 18:18 51.62837 0.67216 32475 ft 389 kts 273°
2026-05-06 18:19 51.62992 0.62897 31997 ft 385 kts 273°
2026-05-06 18:19 51.63145 0.58614 31525 ft 382 kts 273°
2026-05-06 18:19 51.63297 0.54374 31072 ft 379 kts 273°
2026-05-06 18:19 51.63443 0.50214 30624 ft 376 kts 273°
2026-05-06 18:20 51.63585 0.46029 30182 ft 373 kts 272°
2026-05-06 18:20 51.63727 0.41869 29707 ft 370 kts 273°
2026-05-06 18:20 51.63869 0.37750 29283 ft 366 kts 273°
2026-05-06 18:20 51.64008 0.33680 28866 ft 363 kts 272°
2026-05-06 18:21 51.64139 0.29647 28456 ft 359 kts 272°
2026-05-06 18:21 51.64266 0.25657 28060 ft 355 kts 272°
2026-05-06 18:21 51.64391 0.21696 27662 ft 352 kts 272°
2026-05-06 18:21 51.64545 0.17791 27263 ft 349 kts 277°
2026-05-06 18:22 51.65048 0.13990 26857 ft 345 kts 287°
2026-05-06 18:22 51.65950 0.10425 26447 ft 343 kts 294°
2026-05-06 18:22 51.66943 0.06948 26036 ft 340 kts 293°
2026-05-06 18:22 51.67915 0.03496 25611 ft 337 kts 293°
2026-05-06 18:23 51.68877 0.00061 25191 ft 335 kts 293°
2026-05-06 18:23 51.69831 -0.03357 24813 ft 333 kts 293°
2026-05-06 18:23 51.70780 -0.06760 24377 ft 332 kts 293°
2026-05-06 18:23 51.71723 -0.10143 23948 ft 331 kts 293°
2026-05-06 18:24 51.72668 -0.13524 23495 ft 330 kts 293°
2026-05-06 18:24 51.73607 -0.16881 23028 ft 328 kts 293°
2026-05-06 18:24 51.74541 -0.20216 22601 ft 325 kts 293°
2026-05-06 18:24 51.75464 -0.23526 22184 ft 322 kts 293°
2026-05-06 18:25 51.76377 -0.26813 21769 ft 320 kts 293°
2026-05-06 18:25 51.77281 -0.30084 21358 ft 318 kts 293°
2026-05-06 18:25 51.78166 -0.33296 20963 ft 316 kts 293°
2026-05-06 18:25 51.79059 -0.36527 20505 ft 315 kts 293°
2026-05-06 18:26 51.79949 -0.39749 20114 ft 313 kts 293°
2026-05-06 18:26 51.80964 -0.42854 19723 ft 312 kts 303°
2026-05-06 18:26 51.82229 -0.45697 19329 ft 312 kts 305°
2026-05-06 18:26 51.83497 -0.48535 18937 ft 311 kts 305°
2026-05-06 18:27 51.84756 -0.51374 18536 ft 310 kts 305°
2026-05-06 18:27 51.86008 -0.54207 18141 ft 310 kts 305°
2026-05-06 18:27 51.87257 -0.57040 17729 ft 308 kts 305°
2026-05-06 18:27 51.88497 -0.59854 17359 ft 306 kts 305°
2026-05-06 18:28 51.89727 -0.62648 16982 ft 304 kts 305°
2026-05-06 18:28 51.90951 -0.65429 16606 ft 302 kts 305°
2026-05-06 18:28 51.92167 -0.68189 16258 ft 301 kts 305°
2026-05-06 18:28 51.93379 -0.70944 15894 ft 299 kts 305°
2026-05-06 18:29 51.94582 -0.73684 15531 ft 298 kts 305°
2026-05-06 18:29 51.95377 -0.75500 15303 ft 298 kts 305°
2026-05-06 18:29 51.96570 -0.78231 14948 ft 296 kts 305°
2026-05-06 18:29 51.97762 -0.80951 14594 ft 296 kts 305°
2026-05-06 18:30 51.98951 -0.83670 14229 ft 295 kts 305°
2026-05-06 18:30 52.00136 -0.86376 13886 ft 294 kts 305°
2026-05-06 18:30 52.01319 -0.89083 13502 ft 293 kts 305°
2026-05-06 18:30 52.02490 -0.91778 13137 ft 291 kts 305°
2026-05-06 18:31 52.03651 -0.94454 12796 ft 289 kts 305°
2026-05-06 18:31 52.04807 -0.97113 12435 ft 287 kts 305°
2026-05-06 18:31 52.05958 -0.99759 12066 ft 286 kts 306°
2026-05-06 18:31 52.07087 -1.02356 11720 ft 284 kts 306°
2026-05-06 18:32 52.08239 -1.05008 11351 ft 283 kts 306°
2026-05-06 18:32 52.09355 -1.07578 10991 ft 282 kts 306°
2026-05-06 18:32 52.10481 -1.10178 10625 ft 281 kts 305°
2026-05-06 18:32 52.11602 -1.12769 10256 ft 280 kts 306°
2026-05-06 18:33 52.12720 -1.15351 9883 ft 279 kts 305°
2026-05-06 18:33 52.13832 -1.17926 9469 ft 278 kts 306°
2026-05-06 18:33 52.14936 -1.20490 9087 ft 275 kts 305°
2026-05-06 18:33 52.16030 -1.23033 8706 ft 273 kts 306°
2026-05-06 18:34 52.17116 -1.25560 8306 ft 271 kts 306°
2026-05-06 18:34 52.18194 -1.28066 7927 ft 269 kts 306°
2026-05-06 18:34 52.19260 -1.30552 7528 ft 267 kts 306°
2026-05-06 18:34 52.20319 -1.33025 7132 ft 265 kts 306°
2026-05-06 18:35 52.21372 -1.35483 6712 ft 264 kts 306°
2026-05-06 18:35 52.22420 -1.37934 6297 ft 263 kts 306°
2026-05-06 18:35 52.23462 -1.40380 5872 ft 262 kts 306°
2026-05-06 18:35 52.24498 -1.42809 5460 ft 259 kts 306°
2026-05-06 18:36 52.25525 -1.45210 5058 ft 257 kts 306°
2026-05-06 18:36 52.26527 -1.47552 4650 ft 254 kts 306°
2026-05-06 18:36 52.27532 -1.49913 4235 ft 252 kts 306°
2026-05-06 18:36 52.28524 -1.52249 3847 ft 249 kts 307°
2026-05-06 18:37 52.29482 -1.54506 3758 ft 233 kts 306°
2026-05-06 18:37 52.30374 -1.56611 3687 ft 218 kts 307°
2026-05-06 18:37 52.31216 -1.58587 3620 ft 208 kts 309°
2026-05-06 18:37 52.32228 -1.60243 3493 ft 206 kts 325°
2026-05-06 18:38 52.33411 -1.61553 3155 ft 203 kts 329°
2026-05-06 18:38 52.34560 -1.62815 2863 ft 195 kts 329°
2026-05-06 18:38 52.35662 -1.64029 2628 ft 185 kts 329°
2026-05-06 18:38 52.36709 -1.65187 2334 ft 178 kts 329°
2026-05-06 18:39 52.37710 -1.66295 2087 ft 170 kts 330°
2026-05-06 18:39 52.38657 -1.67352 1858 ft 163 kts 330°
2026-05-06 18:39 52.39569 -1.68381 1604 ft 156 kts 330°
2026-05-06 18:40 52.41325 -1.70286 1125 ft 148 kts 331°
2026-05-06 18:40 52.42169 -1.71202 914 ft 143 kts 329°
2026-05-06 18:40 52.42976 -1.72127 689 ft 140 kts 328°
2026-05-06 18:40 52.43767 -1.73012 528 ft 135 kts 329°
2026-05-06 18:41 52.44553 -1.73883 387 ft 136 kts 330°
2026-05-06 18:41 52.45289 -1.74693 327 ft 111 kts 326°
2026-05-06 18:41 52.45785 -1.75251 329 ft 62 kts 326°
2026-05-06 18:41 52.46017 -1.75505 320 ft 34 kts 326°
2026-05-06 18:42 52.46121 -1.75616 317 ft 8 kts 334°
2026-05-06 18:42 52.46171 -1.75569 315 ft 10 kts 53°
2026-05-06 18:42 52.46217 -1.75467 313 ft 8 kts 54°
2026-05-06 18:42 52.46206 -1.75387 313 ft 9 kts 144°
2026-05-06 18:43 52.46157 -1.75334 315 ft 8 kts 147°
2026-05-06 18:43 52.46112 -1.75287 317 ft 10 kts 146°
2026-05-06 18:43 52.46040 -1.75205 321 ft 16 kts 145°
2026-05-06 18:43 52.45943 -1.75095 323 ft 16 kts 146°
2026-05-06 18:44 52.45848 -1.74990 325 ft 19 kts 146°
2026-05-06 18:44 52.45726 -1.74855 329 ft 21 kts 146°
2026-05-06 18:44 52.45603 -1.74721 326 ft 22 kts 147°
2026-05-06 18:44 52.45497 -1.74599 328 ft 17 kts 142°
2026-05-06 18:45 52.45431 -1.74436 330 ft 19 kts 116°
2026-05-06 18:45 52.45363 -1.74216 332 ft 23 kts 117°
2026-05-06 18:45 52.45308 -1.74023 328 ft 13 kts 101°
2026-05-06 18:45 52.45333 -1.73928 328 ft 8 kts 57°
2026-05-06 18:46 52.45346 -1.73862 330 ft 5 kts 118°
2026-05-06 18:46 52.45314 -1.73824 332 ft 6 kts 149°
2026-05-06 18:46 52.45300 -1.73808 331 ft 0 kts 146°